loading
|

STARLINK-32347, 61010

Orbit data source: Space-Track

STARLINK-32347, 61010 is a payload satellite owned by SpaceX/Seattle (US) in LEO that was launched on Thu, 05 Sep 2024 UTC via an FALCON 9 launch vehicle from the Air Force Eastern Test Range (AFETR). Payloads include a variety of satellites, spacecraft, and rockets equipped with specific instruments for various scientific and technological missions. These include communications satellites like Starlink; space stations such as the ISS; scientific satellites like the Hubble; Earth observation satellites from companies like Planet Labs, Umbra, and HawkEye 360; GPS; miniature CubeSats for education and research; and military/defense satellites.

Loading next visibility...
Next conjunction unknown
Loading greatness...
STARLINK-32347 details
Identifier
61010, 2024-158W
Orbit
LEO
Last TLE update16 hours ago
Origin
Flag of USSpaceX/Seattle (US)
ManufacturerSpaceX/Seattle
MissionOperational spacecraft
Bus & MotorSTARLINK V2M, Unknown motor
Mass750 kg wet, ~700 kg dry
Launch date (UTC)
2024-09-05 (1 month ago)
Launch vehicle
FALCON 9
Launch site
Air Force Eastern Test Range (AFETR)
Object type
Payload
Rocket body
Debris
Shape & HBRUnknown
Radar Cross SectionLarge (>1 m²)

Expand to show TLE details & history

TLE from 16 hours ago
0 STARLINK-32347
1 61010U 24158W   24287.99081819  .00000496  00000-0  22373-4 0  9996
2 61010  53.1615 287.5844 0001279  88.1698 271.9454 15.39619870  7185
Epoch: 2024-10-13T23:46Z
Definitive object data (Epoch: 2024-10-13T23:46:46.691Z)
Latitude0.00002°
Longitude-92.1345°
Altitude448.107 km
Speed7.645 km/s
True Right ascension19h 10m 20s
True Declination0° 00' 00"
Sunlit
Object was in daylight at TLE epoch
Predictive object data (real-time)
Latitude4.026°
Longitude-92.19264°
Altitude447.625 km
Speed7.645 km/s
Apparent Right ascension20h 19m 19s
Apparent Declination-18° 09' 24"
Sunlit
Object is in daylight
Predictive observer data (real-time)
Local Sidereal Time09:57:01
Azimuth51.179° ENE
Elevation-59.715°
Doppler factor1
Orbital elements
Apogee448.363 km
Perigee446.617 km
Semi-major axis6,825.627 km
Eccentricity0.0001279
Inclination53.1615°
RAAN287.5844°
Arg. of periapsis88.1698°
True anomaly271.93075°
Mean anomaly271.9454°
Eccentric anomaly271.93808°
Mean motion3.84884 °/min
BSTAR0.000022373
Period93.53 mins
No data available

STARLINK-32347 Visibility forecast

Observer location: 39.9160978°, -105.1181434

Span
Click to sort rows by Start time (UTC) header in descending order
Start Az.
Max El. time (UTC)
Max El. Az.
Max El.
End time (UTC)
End Az.
6 mins2024-10-15 02:25:50.706Z214.468° SW2024-10-15 02:28:50.706Z147.398° SSE39.913°2024-10-15 02:31:50.706Z59.217° ENE
4 mins2024-10-15 04:04:50.706Z296.598° NW2024-10-15 04:06:50.706Z343.195° N19.848°2024-10-15 04:08:50.706Z21.624° NNE
4 mins2024-10-15 08:59:50.706Z335.194° NNW2024-10-15 09:01:50.706Z57.49° ENE34.702°2024-10-15 09:03:50.706Z104.164° ESE